Location: Aufkirchen
(47.9603°N, 11.3653°E)
Time: 22:08:00
(UTC+02:00)

Vanguard 2 Rocket - Visible Passes

Search period start: 25 September 2022 00:00
Search period end: 05 October 2022 00:00
Orbit: 553 x 3323 km, 32.9° (Epoch: 25 September)

Date Brightness Start Highest point End Pass type
(mag) Time Alt. Az. Time Alt. Az. Time Alt. Az.
25 Sep 8.3 05:33:37 11° SSW 05:33:59 11° SSW 05:35:27 10° S visible
26 Sep 8.7 04:37:02 10° SSE 04:37:02 10° SSE 04:37:08 10° SSE visible
28 Sep 8.6 04:49:42 10° SSE 04:49:42 10° SSE 04:49:49 10° SSE visible
01 Oct 10.5 22:25:16 10° S 22:25:46 11° S 22:25:46 11° S visible
02 Oct 10.3 21:25:56 10° S 21:29:34 13° SSE 21:29:34 13° SSE visible
03 Oct 10.4 20:30:32 10° SSE 20:32:01 10° SE 20:33:20 10° SE visible
03 Oct 10.3 22:34:47 10° SSW 22:39:07 17° SSW 22:39:07 17° SSW visible
04 Oct 10.1 21:34:06 10° SSW 21:42:52 20° SSE 21:42:52 20° SSE visible
